Volver al catálogo

DMSP 5D-2 F14 DEB

ActivoPO
NORAD 62941·DEBRIS·🇺🇸 United States

Lanzado Apr 4, 1997 desde Vandenberg Space Force Base

Loading…

Próximos Pases (próximas 24 horas)

TLE

ActualizadoSource: Space-Track

Época: Sep 14, 2026, 22:30 UTC

1 62941U 97012M   26257.93756957  .00031805  00000-0  10883-1 0  9992
2 62941  99.4858 332.6591 0063713 212.1307 147.5985 14.34986547521088

Sigue DMSP 5D-2 F14 DEB en tiempo real con AllMySat

Download on the App Store